GW4446 Weather Reports


time (UTC)temp
C
wind
direction
speed
KPH
gust
KPH
rain 1hr
cm
rain 24hr
cm
rain mn
cm
humidity
%
barometer
mb
20260507221604 28 137 1.6 8.0 0.00 0.00 0.00 69 1014.9
20260507221101 29 160 4.8 11.3 0.00 0.00 0.00 68 1014.8
20260507220558 30 215 6.4 11.3 0.00 0.00 0.00 68 1014.7
20260507220056 30 198 1.6 8.0 0.00 0.00 0.00 69 1014.7
20260507215551 29 181 4.8 6.4 0.00 0.00 0.00 69 1014.8
20260507215050 29 161 4.8 8.0 0.00 0.00 0.00 70 1014.9
20260507214546 28 155 4.8 6.4 0.00 0.00 0.00 70 1014.9
20260507214042 29 150 4.8 11.3 0.00 0.00 0.00 68 1014.8
20260507213539 29 199 4.8 11.3 0.00 0.00 0.00 67 1014.9
20260507213036 30 183 9.7 12.9 0.00 0.00 0.00 66 1014.9
20260507212532 30 156 4.8 11.3 0.00 0.00 0.00 63 1014.9
20260507212029 30 199 4.8 11.3 0.00 0.00 0.00 62 1014.8
20260507211526 30 176 4.8 12.9 0.00 0.00 0.00 63 1014.8
20260507211022 30 134 6.4 9.7 0.00 0.00 0.00 60 1014.8
20260507210519 31 232 3.2 9.7 0.00 0.00 0.00 59 1014.9
20260507210016 30 159 8.0 11.3 0.00 0.00 0.00 58 1014.9
20260507205513 30 200 6.4 12.9 0.00 0.00 0.00 62 1014.9
20260507205009 30 153 3.2 12.9 0.00 0.00 0.00 61 1014.8
20260507204505 31 164 9.7 14.5 0.00 0.00 0.00 60 1014.8
20260507204003 31 134 12.9 14.5 0.00 0.00 0.00 60 1014.9
20260507203501 31 157 6.4 17.7 0.00 0.00 0.00 61 1014.8
20260507202957 31 216 3.2 14.5 0.00 0.00 0.00 61 1015.0
20260507202453 31 235 4.8 11.3 0.00 0.00 0.00 60 1015.0
20260507201949 31 154 9.7 14.5 0.00 0.00 0.00 58 1015.0
20260507201444 31 174 12.9 12.9 0.00 0.00 0.00 61 1015.0
20260507200941 31 203 1.6 11.3 0.00 0.00 0.00 62 1015.1
20260507200436 32 172 4.8 6.4 0.00 0.00 0.00 57 1015.3
20260507195932 32 162 4.8 9.7 0.00 0.00 0.00 57 1015.2
20260507195430 31 134 6.4 9.7 0.00 0.00 0.00 57 1015.1
20260507194928 31 170 3.2 14.5 0.00 0.00 0.00 56 1015.3
20260507194424 31 184 3.2 14.5 0.00 0.00 0.00 54 1015.3
20260507193920 31 177 12.9 16.1 0.00 0.00 0.00 55 1015.4
20260507193417 32 219 3.2 12.9 0.00 0.00 0.00 56 1015.3
20260507192914 32 213 3.2 14.5 0.00 0.00 0.00 57 1015.3
20260507192405 32 163 3.2 9.7 0.00 0.00 0.00 55 1015.4
20260507191902 32 194 6.4 11.3 0.00 0.00 0.00 56 1015.5
20260507191358 31 175 6.4 12.9 0.00 0.00 0.00 60 1015.6
20260507190854 31 189 3.2 14.5 0.00 0.00 0.00 58 1015.7
20260507190353 31 169 4.8 16.1 0.00 0.00 0.00 60 1015.7
20260507185851 31 180 6.4 14.5 0.00 0.00 0.00 58 1015.8
20260507185348 31 173 14.5 16.1 0.00 0.00 0.00 58 1015.8
20260507184845 31 172 3.2 12.9 0.00 0.00 0.00 58 1015.9
20260507184343 31 183 12.9 14.5 0.00 0.00 0.00 59 1016.0
20260507183839 31 112 1.6 14.5 0.00 0.00 0.00 59 1016.2
20260507183336 32 121 3.2 9.7 0.00 0.00 0.00 58 1016.2
20260507182834 31 159 6.4 14.5 0.00 0.00 0.00 57 1016.2
20260507182330 31 180 6.4 12.9 0.00 0.00 0.00 59 1016.4
20260507181826 31 185 3.2 16.1 0.00 0.00 0.00 60 1016.6
20260507181322 32 176 4.8 11.3 0.00 0.00 0.00 58 1016.6
20260507180819 32 196 8.0 17.7 0.00 0.00 0.00 56 1016.7
20260507180316 32 188 6.4 9.7 0.00 0.00 0.00 58 1016.7
20260507175811 31 215 3.2 11.3 0.00 0.00 0.00 59 1016.6
20260507175309 31 129 11.3 14.5 0.00 0.00 0.00 55 1016.8
20260507174806 31 150 4.8 14.5 0.00 0.00 0.00 56 1016.9
20260507174304 31 159 6.4 14.5 0.00 0.00 0.00 56 1016.9
20260507173801 32 128 11.3 14.5 0.00 0.00 0.00 57 1017.1
20260507173258 32 140 8.0 14.5 0.00 0.00 0.00 58 1017.2
20260507172754 32 177 9.7 14.5 0.00 0.00 0.00 57 1017.2
20260507172251 32 189 8.0 11.3 0.00 0.00 0.00 57 1017.2
20260507171747 31 216 3.2 12.9 0.00 0.00 0.00 58 1017.2
20260507171244 31 194 9.7 14.5 0.00 0.00 0.00 59 1017.3
20260507170741 31 162 4.8 14.5 0.00 0.00 0.00 61 1017.2
20260507170238 31 190 3.2 9.7 0.00 0.00 0.00 62 1017.5
20260507165733 32 176 6.4 11.3 0.00 0.00 0.00 59 1017.6
20260507165229 32 163 3.2 11.3 0.00 0.00 0.00 60 1017.6
20260507164726 32 214 3.2 9.7 0.00 0.00 0.00 61 1017.7
20260507164223 32 211 4.8 8.0 0.00 0.00 0.00 59 1017.6
20260507163720 31 191 6.4 12.9 0.00 0.00 0.00 61 1017.6
20260507163218 31 185 3.2 11.3 0.00 0.00 0.00 62 1017.8
20260507162714 31 149 3.2 12.9 0.00 0.00 0.00 62 1017.9
20260507162210 31 207 3.2 11.3 0.00 0.00 0.00 60 1018.1
20260507161706 31 170 6.4 9.7 0.00 0.00 0.00 60 1018.0
20260507161203 31 207 6.4 11.3 0.00 0.00 0.00 63 1017.8
20260507160659 30 160 4.8 9.7 0.00 0.00 0.00 63 1018.0
20260507160156 31 224 3.2 6.4 0.00 0.00 0.00 58 1017.9
20260507155651 31 183 11.3 11.3 0.00 0.00 0.00 59 1018.0
20260507155148 30 144 3.2 6.4 0.00 0.00 0.00 63 1017.9
20260507154644 31 184 6.4 9.7 0.00 0.00 0.00 61 1018.0
20260507154142 31 219 3.2 9.7 0.00 0.00 0.00 61 1017.8
20260507153638 31 304 1.6 6.4 0.00 0.00 0.00 61 1018.0
20260507153135 30 293 1.6 3.2 0.00 0.00 0.00 64 1018.0
20260507152631 30 153 1.6 4.8 0.00 0.00 0.00 63 1017.9
20260507152127 30 112 3.2 6.4 0.00 0.00 0.00 63 1018.2
20260507151624 31 76 6.4 6.4 0.00 0.00 0.00 56 1018.1
20260507151121 31 85 1.6 6.4 0.00 0.00 0.00 54 1018.3
20260507150618 32 107 3.2 3.2 0.00 0.00 0.00 53 1018.1
20260507150114 31 69 0.0 3.2 0.00 0.00 0.00 53 1018.3
20260507145609 31 147 3.2 6.4 0.00 0.00 0.00 53 1017.9
20260507145108 30 224 0.0 4.8 0.00 0.00 0.00 56 1017.9
20260507144603 30 185 1.6 8.0 0.00 0.00 0.00 56 1017.9
20260507144102 30 215 6.4 9.7 0.00 0.00 0.00 57 1017.9
20260507143558 31 83 4.8 8.0 0.00 0.00 0.00 55 1018.1
20260507143055 30 126 4.8 8.0 0.00 0.00 0.00 57 1018.1
20260507142555 30 201 3.2 6.4 0.00 0.00 0.00 58 1018.2
20260507142053 30 173 3.2 9.7 0.00 0.00 0.00 59 1018.0
20260507141549 30 131 4.8 8.0 0.00 0.00 0.00 58 1018.0
20260507141046 30 221 1.6 8.0 0.00 0.00 0.00 59 1018.1
20260507140542 30 158 3.2 6.4 0.00 0.00 0.00 59 1018.1
20260507140040 30 267 1.6 3.2 0.00 0.00 0.00 61 1018.2
20260507135536 30 183 3.2 8.0 0.00 0.00 0.00 63 1017.9
20260507135034 30 191 3.2 6.4 0.00 0.00 0.00 62 1018.0
20260507134530 30 96 4.8 8.0 0.00 0.00 0.00 62 1018.1
20260507134026 30 87 1.6 3.2 0.00 0.00 0.00 62 1018.1
20260507133522 30 95 6.4 8.0 0.00 0.00 0.00 60 1018.0
20260507133021 30 247 1.6 3.2 0.00 0.00 0.00 62 1017.7
20260507132517 30 140 3.2 3.2 0.00 0.00 0.00 62 1017.7
20260507132013 30 141 1.6 3.2 0.00 0.00 0.00 63 1017.8
20260507131510 28 176 1.6 3.2 0.00 0.00 0.00 67 1017.9
20260507131007 28 331 3.2 3.2 0.00 0.00 0.00 67 1017.7
20260507130504 27 265 1.6 1.6 0.00 0.00 0.00 69 1017.6
20260507130003 27 274 3.2 4.8 0.00 0.00 0.00 74 1017.6
20260507125501 27 279 3.2 4.8 0.00 0.00 0.00 75 1017.5
20260507124957 27 306 4.8 4.8 0.00 0.00 0.00 74 1017.4
20260507124454 26 286 1.6 3.2 0.00 0.00 0.00 75 1017.5
20260507123952 26 327 3.2 3.2 0.00 0.00 0.00 74 1017.4
20260507123449 26 93 0.0 3.2 0.00 0.00 0.00 75 1017.5
20260507122946 26 309 1.6 1.6 0.00 0.00 0.00 76 1017.4
20260507122441 26 357 1.6 3.2 0.00 0.00 0.00 79 1017.4
20260507121937 25 326 1.6 3.2 0.00 0.00 0.00 79 1017.3
20260507121432 26 319 1.6 3.2 0.00 0.00 0.00 78 1017.4
20260507120930 26 311 1.6 1.6 0.00 0.00 0.00 77 1017.4
20260507120426 26 335 1.6 1.6 0.00 0.00 0.00 77 1017.1
20260507115922 26 0 1.6 1.6 0.00 0.00 0.00 77 1017.3
20260507115418 26 313 0.0 1.6 0.00 0.00 0.00 77 1017.1
20260507114914 25 317 0.0 1.6 0.00 0.00 0.00 78 1017.0
20260507114411 25 40 1.6 1.6 0.00 0.00 0.00 76 1016.8
20260507113908 25 82 0.0 1.6 0.00 0.00 0.00 77 1016.6
20260507113406 25 82 1.6 1.6 0.00 0.00 0.00 79 1016.7
20260507112903 25 73 0.0 1.6 0.00 0.00 0.00 80 1016.5
20260507112400 25 52 1.6 1.6 0.00 0.00 0.00 80 1016.5
20260507111858 24 324 0.0 1.6 0.00 0.00 0.00 80 1016.6
20260507111354 24 14 1.6 1.6 0.00 0.00 0.00 81 1016.5
20260507110850 24 33 1.6 3.2 0.00 0.00 0.00 81 1016.5
20260507110346 23 28 0.0 1.6 0.00 0.00 0.00 83 1016.6
20260507105844 23 44 0.0 3.2 0.00 0.00 0.00 85 1016.2
20260507105340 23 64 1.6 3.2 0.00 0.00 0.00 86 1016.4
20260507104837 23 11 1.6 3.2 0.00 0.00 0.00 86 1016.4
20260507104334 23 20 1.6 1.6 0.00 0.00 0.00 86 1016.2
20260507103829 23 53 1.6 3.2 0.00 0.00 0.00 86 1016.2
20260507103326 22 42 1.6 3.2 0.00 0.00 0.00 86 1016.2
20260507102823 23 58 1.6 3.2 0.00 0.00 0.00 87 1015.9
20260507102319 23 25 1.6 1.6 0.00 0.00 0.00 87 1015.9
20260507101816 22 28 1.6 1.6 0.00 0.00 0.00 87 1016.0
20260507101315 23 36 1.6 3.2 0.00 0.00 0.00 86 1016.0
20260507100813 23 24 1.6 1.6 0.00 0.00 0.00 85 1015.9
20260507100311 23 25 0.0 1.6 0.00 0.00 0.00 86 1015.9
20260507095809 23 68 1.6 3.2 0.00 0.00 0.00 86 1015.9
20260507095306 23 26 1.6 1.6 0.00 0.00 0.00 86 1015.9
20260507094802 23 6 1.6 1.6 0.00 0.00 0.00 86 1015.7
20260507094259 23 13 0.0 1.6 0.00 0.00 0.00 86 1015.8
20260507093756 23 27 1.6 1.6 0.00 0.00 0.00 86 1015.8
20260507093254 23 16 1.6 1.6 0.00 0.00 0.00 86 1015.6
20260507092752 23 12 1.6 3.2 0.00 0.00 0.00 87 1015.7
20260507092247 23 43 1.6 1.6 0.00 0.00 0.00 88 1015.7
20260507091744 23 44 1.6 1.6 0.00 0.00 0.00 88 1015.5
20260507091241 23 45 1.6 1.6 0.00 0.00 0.00 88 1015.5
20260507090736 23 59 1.6 3.2 0.00 0.00 0.00 87 1015.6
20260507090233 23 64 1.6 1.6 0.00 0.00 0.00 87 1015.6
20260507085730 23 34 1.6 1.6 0.00 0.00 0.00 86 1015.3
20260507085227 23 10 1.6 1.6 0.00 0.00 0.00 87 1015.4
20260507084724 23 38 1.6 1.6 0.00 0.00 0.00 89 1015.6
20260507084220 22 60 1.6 3.2 0.00 0.00 0.00 90 1015.5
20260507083718 22 61 1.6 1.6 0.00 0.00 0.00 89 1015.7
20260507083214 23 46 1.6 1.6 0.00 0.00 0.00 88 1015.5
20260507082710 23 42 1.6 1.6 0.00 0.00 0.00 88 1015.4
20260507082207 23 54 1.6 1.6 0.00 0.00 0.00 88 1015.5
20260507081703 23 42 1.6 1.6 0.00 0.00 0.00 87 1015.4
20260507081159 23 344 1.6 1.6 0.00 0.00 0.00 88 1015.4
20260507080656 23 340 1.6 1.6 0.00 0.00 0.00 88 1015.5
20260507080153 23 23 0.0 3.2 0.00 0.00 0.00 88 1015.5
20260507075648 23 67 1.6 1.6 0.00 0.00 0.00 86 1015.5
20260507075144 23 302 3.2 3.2 0.00 0.00 0.00 87 1015.7
20260507074641 23 4 0.0 1.6 0.00 0.00 0.00 87 1015.5
20260507074139 23 304 1.6 3.2 0.00 0.00 0.00 86 1015.6
20260507073635 24 318 1.6 1.6 0.00 0.00 0.00 86 1015.5
20260507073132 23 315 1.6 1.6 0.00 0.00 0.00 86 1015.4
20260507072630 24 71 0.0 1.6 0.00 0.00 0.00 86 1015.3
20260507072127 24 57 0.0 1.6 0.00 0.00 0.00 85 1015.5
20260507071624 24 327 1.6 1.6 0.00 0.00 0.00 86 1015.7
20260507071120 24 340 1.6 3.2 0.00 0.00 0.00 86 1015.7
20260507070617 23 323 1.6 3.2 0.00 0.00 0.00 87 1015.6
20260507070114 23 343 1.6 3.2 0.00 0.00 0.00 88 1015.6
20260507065611 23 331 1.6 1.6 0.00 0.00 0.00 89 1015.9
20260507065108 23 26 0.0 1.6 0.00 0.00 0.00 89 1015.9
20260507064606 23 343 0.0 1.6 0.00 0.00 0.00 89 1015.8
20260507064104 23 51 1.6 1.6 0.00 0.00 0.00 89 1016.0
20260507063601 23 10 0.0 1.6 0.00 0.00 0.00 90 1016.0
20260507063058 23 29 1.6 1.6 0.00 0.00 0.00 89 1015.9
20260507062554 23 13 0.0 1.6 0.00 0.00 0.00 90 1016.0
20260507062052 23 31 0.0 1.6 0.00 0.00 0.00 90 1016.1
20260507061550 23 344 1.6 1.6 0.00 0.00 0.00 90 1016.2
20260507061048 23 324 1.6 3.2 0.00 0.00 0.00 90 1016.4
20260507060545 23 52 0.0 3.2 0.00 0.00 0.00 90 1016.4
20260507060042 23 289 0.0 1.6 0.00 0.00 0.00 90 1016.4
20260507055537 23 6 0.0 1.6 0.00 0.00 0.00 90 1016.4
20260507055033 23 356 1.6 1.6 0.00 0.00 0.00 90 1016.7
20260507054530 23 335 0.0 1.6 0.00 0.00 0.00 90 1016.7
20260507054027 23 358 0.0 1.6 0.00 0.00 0.00 89 1016.8
20260507053525 23 5 1.6 1.6 0.00 0.00 0.00 88 1016.9
20260507053023 24 35 0.0 1.6 0.00 0.00 0.00 87 1016.7
20260507052520 24 354 0.0 1.6 0.00 0.00 0.00 86 1016.8
20260507052017 24 310 1.6 3.2 0.00 0.00 0.00 86 1016.8
20260507051515 25 306 1.6 3.2 0.00 0.00 0.00 86 1017.2
20260507051011 24 307 1.6 3.2 0.00 0.00 0.00 86 1016.9
20260507050508 24 327 1.6 3.2 0.00 0.00 0.00 87 1016.9
20260507050005 24 308 3.2 3.2 0.00 0.00 0.00 87 1017.1
20260507045501 24 347 1.6 1.6 0.00 0.00 0.00 87 1017.1
20260507044959 24 4 0.0 1.6 0.00 0.00 0.00 87 1017.2
20260507044455 24 328 1.6 1.6 0.00 0.00 0.00 88 1017.1
20260507043951 24 354 0.0 1.6 0.00 0.00 0.00 88 1017.1
20260507043447 24 40 0.0 1.6 0.00 0.00 0.00 88 1017.2
20260507042944 24 49 1.6 1.6 0.00 0.00 0.00 87 1017.2
20260507042441 24 25 1.6 1.6 0.00 0.00 0.00 86 1017.2
20260507041937 25 16 1.6 1.6 0.00 0.00 0.00 85 1017.3
20260507041433 25 316 1.6 1.6 0.00 0.00 0.00 85 1017.3
20260507040931 25 321 1.6 3.2 0.00 0.00 0.00 85 1017.3
20260507040431 25 343 3.2 3.2 0.00 0.00 0.00 86 1017.4
20260507035927 25 1 1.6 1.6 0.00 0.00 0.00 86 1017.5
20260507035424 24 342 3.2 3.2 0.00 0.00 0.00 87 1017.3
20260507034921 24 57 0.0 1.6 0.00 0.00 0.00 86 1017.5
20260507034418 25 49 1.6 1.6 0.00 0.00 0.00 85 1017.6
20260507033916 25 12 1.6 1.6 0.00 0.00 0.00 83 1017.5
20260507033414 25 354 0.0 0.0 0.00 0.00 0.00 81 1017.5
20260507032910 25 69 0.0 1.6 0.00 0.00 0.00 81 1017.4
20260507032407 25 225 1.6 1.6 0.00 0.00 0.00 80 1017.4
20260507031903 25 42 0.0 1.6 0.00 0.00 0.00 81 1017.5
20260507031400 25 42 0.0 1.6 0.00 0.00 0.00 80 1017.5
20260507030857 25 193 1.6 1.6 0.00 0.00 0.00 81 1017.7
20260507030354 25 348 1.6 1.6 0.00 0.00 0.00 82 1017.7
20260507025851 25 70 0.0 1.6 0.00 0.00 0.00 82 1017.8
20260507025349 25 193 1.6 3.2 0.00 0.00 0.00 82 1017.4
20260507024846 26 319 0.0 1.6 0.00 0.00 0.00 80 1017.5
20260507024343 26 63 1.6 1.6 0.00 0.00 0.00 80 1017.7
20260507023839 26 313 0.0 1.6 0.00 0.00 0.00 80 1017.4
20260507023336 26 45 0.0 1.6 0.00 0.00 0.00 79 1017.4
20260507022833 26 78 1.6 3.2 0.00 0.00 0.00 79 1017.2
20260507022329 26 204 1.6 1.6 0.00 0.00 0.00 80 1017.3
20260507021825 26 221 0.0 1.6 0.00 0.00 0.00 80 1017.2
20260507021321 26 137 0.0 1.6 0.00 0.00 0.00 80 1017.3
20260507020819 26 323 3.2 4.8 0.00 0.00 0.00 81 1017.1
20260507020315 25 237 0.0 1.6 0.00 0.00 0.00 82 1017.1
20260507015813 25 45 0.0 1.6 0.00 0.00 0.00 84 1017.1
20260507015310 25 57 0.0 1.6 0.00 0.00 0.00 84 1016.9
20260507014807 25 58 1.6 1.6 0.00 0.00 0.00 84 1016.9
20260507014303 25 51 0.0 1.6 0.00 0.00 0.00 84 1016.9
20260507013800 25 13 0.0 1.6 0.00 0.00 0.00 84 1016.8
20260507013257 25 38 1.6 1.6 0.00 0.00 0.00 84 1016.9
20260507012755 25 15 0.0 1.6 0.00 0.00 0.00 84 1016.6
20260507012250 25 53 1.6 3.2 0.00 0.00 0.00 83 1016.8
20260507011748 26 60 3.2 3.2 0.00 0.00 0.00 81 1016.7
20260507011244 26 62 1.6 1.6 0.00 0.00 0.00 79 1016.6
20260507010744 26 67 1.6 1.6 0.00 0.00 0.00 77 1016.6
20260507010240 26 122 1.6 1.6 0.00 0.00 0.00 77 1016.8
20260507005738 26 347 0.0 1.6 0.00 0.00 0.00 77 1016.6
20260507005234 26 109 0.0 1.6 0.00 0.00 0.00 77 1016.5
20260507004730 26 30 0.0 1.6 0.00 0.00 0.00 76 1016.7
20260507004229 27 148 1.6 3.2 0.00 0.00 0.00 75 1016.3
20260507003724 27 154 1.6 3.2 0.00 0.00 0.00 75 1016.5
20260507003220 27 125 1.6 3.2 0.00 0.00 0.00 75 1016.4
20260507002716 27 101 1.6 4.8 0.00 0.00 0.00 75 1016.4
20260507002212 27 121 1.6 3.2 0.00 0.00 0.00 76 1016.5
20260507001709 27 292 0.0 3.2 0.00 0.00 0.00 76 1016.4
20260507001206 27 108 1.6 3.2 0.00 0.00 0.00 76 1016.2
20260507000702 27 90 1.6 8.0 0.00 0.00 0.00 76 1016.4
20260507000158 27 85 4.8 4.8 0.00 0.00 0.00 77 1016.3
20260506235655 27 106 1.6 4.8 0.00 0.00 0.00 77 1016.3
20260506235151 27 291 0.0 4.8 0.00 0.00 0.00 77 1016.0
20260506234648 27 280 1.6 6.4 0.00 0.00 0.00 77 1015.9
20260506234145 27 156 8.0 9.7 0.00 0.00 0.00 76 1015.9
20260506233642 27 136 3.2 6.4 0.00 0.00 0.00 76 1016.1
20260506233139 27 128 3.2 4.8 0.00 0.00 0.00 76 1016.1
20260506232635 27 136 6.4 8.0 0.00 0.00 0.00 76 1016.3
20260506232131 27 67 1.6 4.8 0.00 0.00 0.00 75 1016.2
20260506231628 27 183 9.7 12.9 0.00 0.00 0.00 75 1016.1
20260506231126 27 119 1.6 9.7 0.00 0.00 0.00 75 1016.2
20260506230623 27 186 1.6 6.4 0.00 0.00 0.00 74 1016.0
20260506230120 27 116 4.8 9.7 0.00 0.00 0.00 73 1016.0
20260506225616 28 180 4.8 9.7 0.00 0.00 0.00 73 1016.0
20260506225113 27 137 3.2 9.7 0.00 0.00 0.00 73 1015.9
20260506224610 27 118 4.8 14.5 0.00 0.00 0.00 73 1015.8
20260506224106 28 163 4.8 11.3 0.00 0.00 0.00 72 1016.0
20260506223602 28 197 3.2 14.5 0.00 0.00 0.00 72 1016.0
20260506223059 28 197 3.2 11.3 0.00 0.00 0.00 72 1015.8
20260506222555 28 171 8.0 12.9 0.00 0.00 0.00 71 1015.9
20260506222052 28 202 3.2 9.7 0.00 0.00 0.00 71 1015.8